SCP
0 0 0 0 0 0 0 0 0 0 0 0 0 0 0 0 0 0 0 0 0 0 0 0 0 0 0 0 0 0 0 0 0 0 0 0 0 0 0 0 0 0 0
0 0 0 0 0 0 0 0 0 0 0 0 0 0 0 0 0 0 0 0 0 0 -0 0 0 0 0 0 0 0 0 0 0 0 0 0 0 0 0 0 0 0 0
0 0 0 0 0 0 0 0 0 0 0 0 0 0 0 0 0 0 0 0 0 0 0 0 0 -0 -0 0 0 0 0 0 0 0 -0 0 0 0 0 0 0 0 0
0 0 0 0 0 0 0 0 0 0 0 0 0 0 0 0 0 0 -0 0 0 0 0 0 -0 -0 -0 0 0 0 0 -0 0 -0 -0 0 0 0 0 0 0 0 0
0 0 0 0 0 0 0 0 0 0 0 0 0 -0 0 -0 -0 -0 0 0 -0 0 0 0 -0 -0 -0 -0 -0 -0 -0 -0 -0 0 -0 0 0 0 0 0 0 0 0
0 0 0 0 0 0 0 0 0 0 0 0 -0 -0 -0 0 0 -0 0 0 0 0 0 0 0 0 0 -0 0 0 -0 0 0 0 -0 -0 0 0 0 0 -0 0 0
0 0 0 0 0 0 0 0 0 0 0 0 0 0 0 0 0 -0 0 0 0 0 0 -0 0 0 -0 0 -0 0 -0 0 0 0 0 0 0 0 0 0 0 0 0
0 0 0 0 0 0 0 0 0 0 0 0 0 -0 -0 0 0 0 0 0 0 0 0 0 0 0 -0 -0 -0 0 0 0 0 0 0 0 0 0 0 0 0 0 0
0 0 0 0 0 0 0 0 0 0 0 0 0 0 0 0 0 0 0 0 -0 0 0 0 0 -0 -0 -0 0 0 0 0 0 0 0 0 0 0 0 0 0 0 0
0 0 0 0 0 0 0 0 0 0 0 0 0 0 0 0 0 0 0 0 0 0 0 0 0 0 -0 0 0 0 0 0 0 0 0 0 0 0 0 0 0 0 0
0 0 0 0 0 0 0 0 0 0 0 0 0 0 0 0 0 0 0 0 0 0 0 0 0 0 0 0 0 0 0 0 0 0 0 0 0 0 0 0 0 0 0
0 0 0 0 0 0 0 0 0 0 0 0 0 0 0 0 0 0 0 0 0 0 0 0 0 0 -0 0 0 0 0 0 0 0 0 0 0 0 0 0 0 0 0
0 0 0 0 0 0 0 0 0 0 -0 -0 -0 0 0 0 0 0 0 0 0 0 0 0 0 0 0 0 0 0 0 0 0 0 0 0 0 0 0 0 0 0 0
0 0 0 0 0 0 0 0 -0 -0 -0 -0 0 0 0 0 0 0 0 0 0 0 0 0 0 0 0 0 0 0 0 0 0 0 0 0 0 0 0 0 0 0 0
0 0 0 0 0 0 -0 -0 -0 -0 -0 0 0 0 0 0 0 0 0 0 0 0 0 0 0 0 0 0 0 0 0 0 0 0 0 0 0 0 0 0 0 0 0
0 0 0 0 0 0 0 0 0 0 0 0 0 0 0 0 0 0 0 0 0 0 0 0 0 0 0 0 0 0 0 0 0 0 0 0 0 0 0 0 0 0 0
0 0 0 0 0 0 0 -0 0 0 0 0 -0 -0 0 0 0 0 0 0 0 0 0 0 0 0 0 0 0 0 0 0 0 0 0 0 0 0 0 0 0 0 0
0 0 0 0 0 0 0 0 0 0 0 0 0 0 0 0 0 0 0 0 0 0 0 0 0 0 0 0 0 0 0 0 0 0 0 0 0 0 0 0 0 0 0
0 0 0 0 0 0 0 0 0 0 0 0 0 0 0 0 0 0 0 0 0 0 0 0 0 0 0 0 0 0 0 0 0 0 0 -0 -0 0 0 0 0 0 0
0 0 0 0 0 0 0 0 0 0 0 0 0 0 0 0 0 0 0 0 0 0 0 0 0 0 0 0 0 0 0 0 0 0 0 0 0 0 0 0 0 0 0
0 0 0 0 0 0 0 0 0 0 0 0 0 0 0 0 0 0 0 0 0 0 0 0 0 0 0 0 0 0 0 0 0 0 0 0 0 0 0 0 0 0 0
0 0 0 0 0 -0 -0 -0 -0 0 0 0 0 0 0 0 0 0 0 0 0 0 0 0 0 0 0 0 0 0 0 0 0 0 0 0 0 0 0 0 0 0 0
0 0 0 0 0 0 0 0 0 0 0 0 0 0 0 0 0 0 0 0 0 0 0 0 0 0 0 0 0 0 0 0 0 0 0 0 0 0 0 0 0 0 0
0 0 0 0 0 0 0 0 0 0 0 0 0 0 0 0 0 0 0 0 0 0 0 0 0 0 0 0 0 0 0 0 0 0 0 0 0 0 0 0 0 0 0
0 0 0 0 0 0 0 0 0 0 0 0 0 0 0 0 0 0 0 0 0 0 0 0 0 0 0 0 0 0 0 0 0 0 0 0 0 0 0 0 0 0 0
0 0 0 0 0 0 0 0 0 0 0 0 0 0 0 0 0 0 0 0 0 0 0 0 0 0 0 0 0 0 0 0 0 0 0 0 0 0 0 0 0 0 0
Wind_Speed_500mb
34 35 40 40 46 48 54 51 50 51 50 56 57 55 48 44 45 40 31 35 32 29 27 28 25 24 28 30 30 30 29 28 38 43 31 33 18 14 7 25 38 40 35
37 35 41 48 53 61 57 48 47 53 53 58 54 52 43 35 33 35 33 33 30 31 28 26 19 20 25 27 27 29 30 28 31 28 29 25 11 3 12 21 26 31 31
35 42 51 60 65 59 47 47 52 54 55 51 50 45 29 28 31 35 31 27 27 32 19 22 16 17 23 26 23 20 21 21 26 24 20 12 3 7 18 24 29 24 24
46 51 55 54 53 50 48 49 51 52 50 43 42 33 25 22 24 29 27 31 31 25 19 20 14 16 22 23 15 11 10 29 32 17 10 5 10 8 17 24 26 30 36
48 52 48 49 50 48 45 43 42 44 44 39 36 26 26 22 24 21 14 32 30 25 16 13 11 16 17 16 13 21 18 27 19 16 18 16 18 19 22 23 43 39 43
46 47 51 50 44 43 39 38 40 44 43 37 34 28 23 29 25 26 22 28 23 19 15 16 8 12 9 14 19 16 33 11 10 20 33 26 23 22 27 46 61 56 53
45 45 43 42 40 38 35 36 38 43 43 36 31 28 21 24 37 34 30 21 24 17 14 16 14 7 3 6 24 23 30 19 19 22 22 19 30 25 33 39 43 54 51
37 35 38 38 35 34 35 39 39 40 40 35 27 25 17 15 22 36 31 28 26 14 13 9 7 4 10 15 17 22 28 38 40 30 24 30 34 34 35 31 35 47 47
35 36 37 37 37 39 45 45 41 36 36 24 24 25 19 12 19 27 28 35 33 18 16 14 13 5 7 11 13 22 26 27 30 35 39 40 41 36 32 35 40 45 44
36 39 42 41 39 44 49 42 38 32 32 30 27 25 14 19 21 30 37 32 32 23 17 13 14 7 3 8 7 12 18 24 23 25 26 32 33 32 31 28 32 35 36
41 43 41 45 39 40 42 33 35 31 26 26 24 23 24 17 27 33 34 38 31 24 20 13 17 11 5 11 5 10 16 21 21 18 27 28 26 25 26 27 25 22 22
45 44 42 48 34 39 37 32 31 28 24 21 26 23 18 9 30 32 36 35 30 21 24 20 16 15 13 12 12 14 9 11 9 13 20 24 26 26 26 25 22 19 15
47 42 38 45 30 35 38 32 27 22 19 27 30 22 26 17 28 34 36 34 29 24 28 22 22 19 13 9 14 12 8 5 10 11 12 15 19 22 21 21 19 13 10
42 39 36 43 29 33 34 32 26 17 22 29 24 16 17 10 35 34 41 38 33 32 25 27 23 16 18 15 10 9 8 8 17 16 16 14 15 21 23 23 17 10 9
38 35 36 31 29 32 28 28 31 29 28 33 33 22 16 21 32 33 41 40 35 34 29 23 21 21 23 25 16 11 9 11 15 16 12 15 16 15 16 23 24 18 11
34 31 24 28 30 31 31 31 26 23 23 20 16 24 16 17 31 40 36 37 35 38 36 28 25 19 27 26 17 14 16 18 22 23 17 13 19 18 17 18 17 16 12
29 27 22 22 25 27 31 35 32 14 22 12 20 30 21 20 22 30 30 35 34 35 38 32 23 16 21 20 16 14 11 11 20 26 28 22 15 26 22 14 14 9 11
29 25 22 25 22 23 28 30 22 15 19 14 16 23 25 8 2 16 30 35 37 33 34 35 33 28 23 20 14 12 18 18 17 18 25 35 28 23 22 22 22 19 15
29 26 21 21 20 22 25 28 24 15 12 14 16 14 20 17 5 13 30 31 31 31 30 28 31 32 30 28 11 7 18 16 15 18 21 26 36 38 35 31 31 31 29
27 24 23 21 23 25 24 22 21 17 14 18 21 21 17 14 9 1 18 29 29 30 30 27 25 25 26 34 26 14 10 15 10 6 31 32 30 29 27 27 28 32 33
29 26 24 26 26 27 25 22 20 19 18 18 16 16 17 13 8 7 8 16 24 29 31 35 32 29 31 38 31 27 24 16 13 18 10 29 42 38 32 30 24 26 33
34 32 30 29 27 28 27 26 24 23 21 21 17 15 17 15 14 17 16 17 21 26 30 33 34 34 31 35 40 39 40 33 31 26 22 25 26 30 37 34 31 23 20
43 37 36 35 34 32 29 29 29 27 25 24 24 23 21 20 17 18 25 27 27 28 31 33 35 39 41 38 38 36 34 37 35 35 36 32 38 42 46 45 43 37 30
43 49 44 39 37 38 37 35 31 31 32 30 26 27 26 25 26 26 25 28 37 38 39 40 39 41 40 39 40 41 43 41 39 37 36 43 42 42 43 39 34 35 34
48 46 48 50 47 43 39 36 37 37 38 39 39 36 35 35 36 36 34 31 33 37 41 46 51 51 50 46 43 45 44 43 45 45 44 44 43 38 37 39 35 32 31
44 45 42 44 48 53 52 50 50 48 49 46 45 43 42 41 40 43 42 41 40 39 40 43 46 51 57 59 56 55 51 47 48 50 50 51 50 49 48 45 43 40 37
Wind_Direction_500mb
276 275 284 292 299 306 306 303 302 304 308 312 311 310 299 265 253 253 241 246 255 254 257 263 263 274 292 288 283 278 283 290 285 293 303 312 300 304 282 188 193 202 215
279 284 295 302 304 305 303 300 303 307 306 311 308 306 297 257 253 234 248 245 246 245 262 255 266 278 299 297 295 285 287 297 304 298 297 302 302 224 192 187 195 207 211
297 305 306 305 304 301 294 298 306 312 313 313 313 300 280 252 249 237 237 235 232 251 256 250 254 282 310 312 307 295 290 293 291 285 276 281 223 159 179 185 184 184 184
306 306 310 311 308 303 294 295 307 313 315 319 324 303 267 254 233 233 236 230 218 238 238 249 256 295 319 325 326 312 325 324 302 243 238 199 139 153 173 160 166 170 159
310 310 309 309 309 304 299 300 305 314 313 304 316 303 271 242 228 231 227 216 219 230 235 263 264 289 328 352 8 341 316 325 332 220 186 163 147 164 153 151 145 143 145
310 309 311 311 314 313 304 303 313 314 314 308 313 305 270 253 236 224 215 195 223 216 244 209 284 300 327 337 7 2 330 319 50 137 156 156 141 154 144 125 126 125 125
311 315 317 315 313 319 315 313 316 318 316 308 304 297 293 269 237 216 209 216 191 198 230 246 246 273 310 7 12 350 12 86 110 135 165 185 163 149 138 131 124 124 126
328 334 331 329 321 320 322 321 314 318 325 316 312 299 270 273 220 199 200 210 192 199 162 184 162 95 76 49 46 42 63 78 83 92 113 114 131 136 126 119 125 125 125
332 331 329 327 325 322 321 323 316 312 326 317 321 319 263 232 200 191 191 184 196 188 190 190 193 135 95 77 57 37 92 82 89 92 99 109 116 121 124 117 126 126 123
340 333 329 322 316 322 322 322 327 318 322 323 322 324 263 231 212 195 204 196 186 191 186 186 181 171 168 68 66 66 85 113 103 106 116 113 115 124 124 112 119 127 126
334 332 333 329 319 327 329 327 329 326 327 328 321 327 310 237 208 206 204 186 196 196 199 208 189 179 170 170 158 127 96 91 99 125 134 132 138 139 140 138 131 127 134
332 329 334 331 320 337 336 332 331 329 332 339 332 325 309 246 198 194 190 185 192 199 199 193 186 165 107 143 147 152 132 88 82 112 126 134 141 143 138 139 135 129 128
329 327 329 339 333 334 336 339 333 338 322 341 339 332 328 246 196 189 194 191 189 194 190 198 180 176 151 135 158 164 168 152 130 133 147 154 155 158 157 147 143 144 138
327 331 328 335 337 343 341 340 336 345 338 340 353 346 326 294 186 200 185 187 189 186 178 187 201 189 210 193 169 162 159 157 156 139 132 148 165 191 188 176 171 179 175
323 335 345 360 356 350 353 356 357 350 347 331 353 359 338 324 185 183 191 190 193 194 191 194 202 217 215 206 202 217 226 211 189 176 152 157 175 169 175 191 194 198 195
324 327 338 350 349 352 342 341 348 351 342 349 29 16 353 323 186 196 185 191 196 201 206 208 216 229 209 211 216 243 249 227 210 200 190 175 194 184 187 187 205 220 214
329 327 323 329 345 345 342 333 338 0 23 74 32 18 4 34 156 189 197 193 196 203 207 212 211 204 201 204 227 238 221 205 207 211 207 204 199 189 179 193 205 212 209
326 324 315 326 326 333 340 353 344 339 3 33 19 13 15 28 79 191 189 194 194 204 211 217 219 222 217 205 209 195 194 201 204 205 210 213 214 209 207 221 222 243 257
325 327 313 311 323 329 330 342 350 328 309 311 323 342 5 12 22 198 200 196 200 207 211 215 219 222 221 202 182 176 196 192 199 225 215 211 214 220 226 231 227 236 247
326 321 316 304 306 313 315 324 339 333 317 295 298 311 321 340 344 306 192 207 222 225 224 224 222 216 210 202 219 206 197 206 214 264 221 208 211 217 227 239 251 256 256
305 313 312 309 303 300 301 297 305 318 318 319 316 314 312 313 270 261 246 224 228 230 229 234 235 229 221 218 231 235 231 223 243 246 256 228 229 226 229 241 254 270 253
297 300 299 303 302 296 294 285 282 290 298 302 301 305 313 308 282 252 245 232 226 228 228 230 229 228 230 227 230 237 247 248 248 248 251 249 254 235 232 238 251 256 248
294 289 293 293 296 295 291 289 275 273 272 284 290 285 285 288 287 276 258 248 238 226 221 222 225 224 225 230 234 233 247 254 252 244 244 244 244 242 246 249 255 251 246
292 286 279 281 284 285 289 286 282 274 270 269 269 274 274 280 280 277 274 262 252 246 238 234 228 226 225 227 238 246 250 249 245 241 238 238 237 240 242 241 249 240 250
281 284 284 271 272 276 276 280 277 274 269 270 272 269 266 270 273 274 269 265 261 255 251 246 243 241 241 241 244 254 253 246 240 233 231 230 232 237 237 232 231 234 239
301 279 283 276 263 268 275 277 280 280 273 269 268 270 271 272 274 275 266 257 259 261 261 255 252 249 246 246 247 252 253 251 245 242 242 244 242 239 241 241 241 241 242
Wind_Speed_850mb
34 35 40 40 46 48 54 51 50 51 50 56 57 55 48 44 45 40 31 35 32 29 27 28 25 24 28 30 30 30 29 28 38 43 31 33 18 14 7 25 38 40 35
37 35 41 48 53 61 57 48 47 53 53 58 54 52 43 35 33 35 33 33 30 31 28 26 19 20 25 27 27 29 30 28 31 28 29 25 11 3 12 21 26 31 31
35 42 51 60 65 59 47 47 52 54 55 51 50 45 29 28 31 35 31 27 27 32 19 22 16 17 23 26 23 20 21 21 26 24 20 12 3 7 18 24 29 24 24
46 51 55 54 53 50 48 49 51 52 50 43 42 33 25 22 24 29 27 31 31 25 19 20 14 16 22 23 15 11 10 29 32 17 10 5 10 8 17 24 26 30 36
48 52 48 49 50 48 45 43 42 44 44 39 36 26 26 22 24 21 14 32 30 25 16 13 11 16 17 16 13 21 18 27 19 16 18 16 18 19 22 23 43 39 43
46 47 51 50 44 43 39 38 40 44 43 37 34 28 23 29 25 26 22 28 23 19 15 16 8 12 9 14 19 16 33 11 10 20 33 26 23 22 27 46 61 56 53
45 45 43 42 40 38 35 36 38 43 43 36 31 28 21 24 37 34 30 21 24 17 14 16 14 7 3 6 24 23 30 19 19 22 22 19 30 25 33 39 43 54 51
37 35 38 38 35 34 35 39 39 40 40 35 27 25 17 15 22 36 31 28 26 14 13 9 7 4 10 15 17 22 28 38 40 30 24 30 34 34 35 31 35 47 47
35 36 37 37 37 39 45 45 41 36 36 24 24 25 19 12 19 27 28 35 33 18 16 14 13 5 7 11 13 22 26 27 30 35 39 40 41 36 32 35 40 45 44
36 39 42 41 39 44 49 42 38 32 32 30 27 25 14 19 21 30 37 32 32 23 17 13 14 7 3 8 7 12 18 24 23 25 26 32 33 32 31 28 32 35 36
41 43 41 45 39 40 42 33 35 31 26 26 24 23 24 17 27 33 34 38 31 24 20 13 17 11 5 11 5 10 16 21 21 18 27 28 26 25 26 27 25 22 22
45 44 42 48 34 39 37 32 31 28 24 21 26 23 18 9 30 32 36 35 30 21 24 20 16 15 13 12 12 14 9 11 9 13 20 24 26 26 26 25 22 19 15
47 42 38 45 30 35 38 32 27 22 19 27 30 22 26 17 28 34 36 34 29 24 28 22 22 19 13 9 14 12 8 5 10 11 12 15 19 22 21 21 19 13 10
42 39 36 43 29 33 34 32 26 17 22 29 24 16 17 10 35 34 41 38 33 32 25 27 23 16 18 15 10 9 8 8 17 16 16 14 15 21 23 23 17 10 9
38 35 36 31 29 32 28 28 31 29 28 33 33 22 16 21 32 33 41 40 35 34 29 23 21 21 23 25 16 11 9 11 15 16 12 15 16 15 16 23 24 18 11
34 31 24 28 30 31 31 31 26 23 23 20 16 24 16 17 31 40 36 37 35 38 36 28 25 19 27 26 17 14 16 18 22 23 17 13 19 18 17 18 17 16 12
29 27 22 22 25 27 31 35 32 14 22 12 20 30 21 20 22 30 30 35 34 35 38 32 23 16 21 20 16 14 11 11 20 26 28 22 15 26 22 14 14 9 11
29 25 22 25 22 23 28 30 22 15 19 14 16 23 25 8 2 16 30 35 37 33 34 35 33 28 23 20 14 12 18 18 17 18 25 35 28 23 22 22 22 19 15
29 26 21 21 20 22 25 28 24 15 12 14 16 14 20 17 5 13 30 31 31 31 30 28 31 32 30 28 11 7 18 16 15 18 21 26 36 38 35 31 31 31 29
27 24 23 21 23 25 24 22 21 17 14 18 21 21 17 14 9 1 18 29 29 30 30 27 25 25 26 34 26 14 10 15 10 6 31 32 30 29 27 27 28 32 33
29 26 24 26 26 27 25 22 20 19 18 18 16 16 17 13 8 7 8 16 24 29 31 35 32 29 31 38 31 27 24 16 13 18 10 29 42 38 32 30 24 26 33
34 32 30 29 27 28 27 26 24 23 21 21 17 15 17 15 14 17 16 17 21 26 30 33 34 34 31 35 40 39 40 33 31 26 22 25 26 30 37 34 31 23 20
43 37 36 35 34 32 29 29 29 27 25 24 24 23 21 20 17 18 25 27 27 28 31 33 35 39 41 38 38 36 34 37 35 35 36 32 38 42 46 45 43 37 30
43 49 44 39 37 38 37 35 31 31 32 30 26 27 26 25 26 26 25 28 37 38 39 40 39 41 40 39 40 41 43 41 39 37 36 43 42 42 43 39 34 35 34
48 46 48 50 47 43 39 36 37 37 38 39 39 36 35 35 36 36 34 31 33 37 41 46 51 51 50 46 43 45 44 43 45 45 44 44 43 38 37 39 35 32 31
44 45 42 44 48 53 52 50 50 48 49 46 45 43 42 41 40 43 42 41 40 39 40 43 46 51 57 59 56 55 51 47 48 50 50 51 50 49 48 45 43 40 37
Wind_Direction_850mb
276 275 284 292 299 306 306 303 302 304 308 312 311 310 299 265 253 253 241 246 255 254 257 263 263 274 292 288 283 278 283 290 285 293 303 312 300 304 282 188 193 202 215
279 284 295 302 304 305 303 300 303 307 306 311 308 306 297 257 253 234 248 245 246 245 262 255 266 278 299 297 295 285 287 297 304 298 297 302 302 224 192 187 195 207 211
297 305 306 305 304 301 294 298 306 312 313 313 313 300 280 252 249 237 237 235 232 251 256 250 254 282 310 312 307 295 290 293 291 285 276 281 223 159 179 185 184 184 184
306 306 310 311 308 303 294 295 307 313 315 319 324 303 267 254 233 233 236 230 218 238 238 249 256 295 319 325 326 312 325 324 302 243 238 199 139 153 173 160 166 170 159
310 310 309 309 309 304 299 300 305 314 313 304 316 303 271 242 228 231 227 216 219 230 235 263 264 289 328 352 8 341 316 325 332 220 186 163 147 164 153 151 145 143 145
310 309 311 311 314 313 304 303 313 314 314 308 313 305 270 253 236 224 215 195 223 216 244 209 284 300 327 337 7 2 330 319 50 137 156 156 141 154 144 125 126 125 125
311 315 317 315 313 319 315 313 316 318 316 308 304 297 293 269 237 216 209 216 191 198 230 246 246 273 310 7 12 350 12 86 110 135 165 185 163 149 138 131 124 124 126
328 334 331 329 321 320 322 321 314 318 325 316 312 299 270 273 220 199 200 210 192 199 162 184 162 95 76 49 46 42 63 78 83 92 113 114 131 136 126 119 125 125 125
332 331 329 327 325 322 321 323 316 312 326 317 321 319 263 232 200 191 191 184 196 188 190 190 193 135 95 77 57 37 92 82 89 92 99 109 116 121 124 117 126 126 123
340 333 329 322 316 322 322 322 327 318 322 323 322 324 263 231 212 195 204 196 186 191 186 186 181 171 168 68 66 66 85 113 103 106 116 113 115 124 124 112 119 127 126
334 332 333 329 319 327 329 327 329 326 327 328 321 327 310 237 208 206 204 186 196 196 199 208 189 179 170 170 158 127 96 91 99 125 134 132 138 139 140 138 131 127 134
332 329 334 331 320 337 336 332 331 329 332 339 332 325 309 246 198 194 190 185 192 199 199 193 186 165 107 143 147 152 132 88 82 112 126 134 141 143 138 139 135 129 128
329 327 329 339 333 334 336 339 333 338 322 341 339 332 328 246 196 189 194 191 189 194 190 198 180 176 151 135 158 164 168 152 130 133 147 154 155 158 157 147 143 144 138
327 331 328 335 337 343 341 340 336 345 338 340 353 346 326 294 186 200 185 187 189 186 178 187 201 189 210 193 169 162 159 157 156 139 132 148 165 191 188 176 171 179 175
323 335 345 360 356 350 353 356 357 350 347 331 353 359 338 324 185 183 191 190 193 194 191 194 202 217 215 206 202 217 226 211 189 176 152 157 175 169 175 191 194 198 195
324 327 338 350 349 352 342 341 348 351 342 349 29 16 353 323 186 196 185 191 196 201 206 208 216 229 209 211 216 243 249 227 210 200 190 175 194 184 187 187 205 220 214
329 327 323 329 345 345 342 333 338 0 23 74 32 18 4 34 156 189 197 193 196 203 207 212 211 204 201 204 227 238 221 205 207 211 207 204 199 189 179 193 205 212 209
326 324 315 326 326 333 340 353 344 339 3 33 19 13 15 28 79 191 189 194 194 204 211 217 219 222 217 205 209 195 194 201 204 205 210 213 214 209 207 221 222 243 257
325 327 313 311 323 329 330 342 350 328 309 311 323 342 5 12 22 198 200 196 200 207 211 215 219 222 221 202 182 176 196 192 199 225 215 211 214 220 226 231 227 236 247
326 321 316 304 306 313 315 324 339 333 317 295 298 311 321 340 344 306 192 207 222 225 224 224 222 216 210 202 219 206 197 206 214 264 221 208 211 217 227 239 251 256 256
305 313 312 309 303 300 301 297 305 318 318 319 316 314 312 313 270 261 246 224 228 230 229 234 235 229 221 218 231 235 231 223 243 246 256 228 229 226 229 241 254 270 253
297 300 299 303 302 296 294 285 282 290 298 302 301 305 313 308 282 252 245 232 226 228 228 230 229 228 230 227 230 237 247 248 248 248 251 249 254 235 232 238 251 256 248
294 289 293 293 296 295 291 289 275 273 272 284 290 285 285 288 287 276 258 248 238 226 221 222 225 224 225 230 234 233 247 254 252 244 244 244 244 242 246 249 255 251 246
292 286 279 281 284 285 289 286 282 274 270 269 269 274 274 280 280 277 274 262 252 246 238 234 228 226 225 227 238 246 250 249 245 241 238 238 237 240 242 241 249 240 250
281 284 284 271 272 276 276 280 277 274 269 270 272 269 266 270 273 274 269 265 261 255 251 246 243 241 241 241 244 254 253 246 240 233 231 230 232 237 237 232 231 234 239
301 279 283 276 263 268 275 277 280 280 273 269 268 270 271 272 274 275 266 257 259 261 261 255 252 249 246 246 247 252 253 251 245 242 242 244 242 239 241 241 241 241 242